Home   Weather   Bimbo   Past weeks

Flag for Central African Republic Past Weather in Bimbo, Central African Republic — Yesterday and Last 2 Weeks

Now
88 °F

Scattered clouds.


Feels Like: 98 °F
Forecast: 71 / 94 °F
Wind: 2 mph from North

Location: Bangui Airport

Current Time: Dec 4, 2016 at 1:35:11 pm

Latest Report: Dec 4, 2016 at 12:00 pm


Visibility: N/A

Pressure: 29.83 "Hg

Humidity: 66%

Dew Point: 75 °F

Location of BimboLocation

Past Weather in Bimbo — Graph

°F

Bimbo Temperature Yesterday

Maximum temperature yesterday: 90 °F (at 12:00 pm)
Minimum temperature yesterday: 73 °F (at 3:00 am)
Average temperature yesterday: 79 °F

High & Low Weather Summary for the Past Weeks

 TemperatureHumidityPressure
High93 °F (Nov 19, 2:00 pm)100% (Nov 20, 3:00 am)29.98 "Hg (Nov 20, 3:00 am)
Low70 °F (Nov 21, 3:00 am)53% (Nov 19, 2:00 pm)29.68 "Hg (Nov 20, 2:00 pm)
Average78 °F87%29.83 "Hg
* Reported Nov 19 12:00 pm — Dec 4 12:00 pm, Bimbo, Weather by CustomWeather, © 2016

Note: Actual official high and low records may vary slightly from our data, if they occured in-between our weather recording intervals... More about our weather records

Advertising

Bimbo Weather History for the Previous 24 Hours

Scroll right to see more
 ConditionsComfort  
Time TempWeatherWind HumidityBarometerVisibility
12:00 pm
Sun, Dec 4
88 °FScattered clouds.2 mph66%29.83 "HgN/A
11:00 am88 °FScattered clouds.2 mph62%29.86 "HgN/A
10:00 am86 °FPassing clouds.No wind66%29.89 "HgN/A
9:00 am82 °FPassing clouds.1 mph79%29.89 "HgN/A
8:00 am79 °FPassing clouds.No wind84%29.89 "HgN/A
7:00 am75 °FPassing clouds.2 mph94%29.86 "Hg4 mi
6:00 am73 °FPassing clouds.No wind100%29.86 "Hg5 mi
5:00 am73 °FPassing clouds.No wind100%29.86 "Hg4 mi
4:00 am73 °FPassing clouds.No wind94%29.83 "Hg4 mi
3:00 am73 °FPassing clouds.2 mph94%29.83 "Hg4 mi
2:00 am73 °FPassing clouds.2 mph94%29.83 "Hg4 mi
1:00 am73 °FPassing clouds.No wind100%29.83 "Hg5 mi
12:00 am73 °FPassing clouds.No wind100%29.86 "HgN/A
11:00 pm
Sat, Dec 3
75 °FClear.2 mph94%29.83 "Hg10 mi
10:00 pm75 °FClear.No wind94%29.86 "Hg10 mi
9:00 pm75 °FPassing clouds.2 mph94%29.83 "Hg4 mi
8:00 pm77 °FPassing clouds.2 mph89%29.80 "Hg2 mi
7:00 pm77 °FPassing clouds.No wind89%29.77 "Hg2 mi
6:00 pm77 °FPassing clouds.2 mph89%29.77 "Hg2 mi
5:00 pm79 °FThunderstorms. Scattered clouds.2 mph84%29.74 "Hg4 mi
4:00 pm79 °FThunderstorms. Scattered clouds.5 mph84%29.74 "HgN/A
3:00 pm81 °FThunderstorms. Scattered clouds.5 mph79%29.74 "HgN/A
2:00 pm90 °FPartly sunny.2 mph59%29.77 "HgN/A
1:00 pm88 °FScattered clouds.2 mph62%29.80 "HgN/A
Weather by CustomWeather, © 2016

See weather overviewHow to use our weather pages